Erzincan, Turkey

10:52 PM +03 on May 25, 2018 (GMT +0300)
Erzincan

Weather History for LTCD - November, 2011

Change the Weather History Date:

Thursday, November 10, 2011

  Actual Average Record
Temperature  
Mean Temperature 34 °F -  
Max Temperature 44 °F 48 °F - ()
Min Temperature 25 °F 31 °F - ()
Degree Days  
Heating Degree Days 30    
Moisture  
Dew Point 28 °F    
Average Humidity 75    
Maximum Humidity 100    
Minimum Humidity 42    
Precipitation  
Precipitation 0.12 in 0.05 in - ()
Sea Level Pressure  
Sea Level Pressure 30.00 in    
Wind  
Wind Speed 2 mph ()    
Max Wind Speed 12 mph    
Max Gust Speed -    
Visibility 6.3 miles    
Events Rain , Snow    
T = Trace of Precipitation, MM = Missing Value Source: Averaged Metar Reports

Daily Weather History Graph

Daily Weather History Graph

Search for Another Location

Airport or City:

Astronomy

Nov. 10, 2011 Rise Set
Actual Time 6:00 AM EET 4:11 PM EET
Civil Twilight 5:31 AM EET 4:39 PM EET
Nautical Twilight 4:59 AM EET 5:11 PM EET
Astronomical Twilight 4:27 AM EET 5:43 PM EET
Moon 3:45 PM EET (11/10) 5:32 AM EET (11/10)
Length of Visible Light 11h 07m
Length of Day
10h 10m
Full, 100% of the Moon is Illuminated
Nov 10
Full
Nov 10
Full
Nov 18
Last Quarter
Nov 25
New
Dec 2
First Quarter

Hourly Weather History & Observations

Time (EET) Temp. Windchill Dew Point Humidity Pressure Visibility Wind Dir Wind Speed Gust Speed Precip Events Conditions
12:50 AM 28.4 °F - 23.0 °F 80% 30.01 in 6.2 mi Calm Calm - N/A   Mostly Cloudy
1:50 AM 30.2 °F - 23.0 °F 75% 29.98 in 6.2 mi Variable 1.2 mph - N/A   Mostly Cloudy
2:00 AM 29 °F - 22 °F 65%  in 6 mi South 1.2 mph - -   Partly Cloudy
2:50 AM 30.2 °F 26.7 °F 23.0 °F 75% 29.98 in 6.2 mi North 3.5 mph - N/A   Mostly Cloudy
3:50 AM 32.0 °F - 23.0 °F 69% 29.95 in 6.2 mi Calm Calm - N/A   Mostly Cloudy
4:50 AM 30.2 °F - 23.0 °F 75% 29.95 in 6.2 mi Variable 2.3 mph - N/A   Mostly Cloudy
5:50 AM 30.2 °F - 23.0 °F 75% 29.95 in 6.2 mi Variable 1.2 mph - N/A   Mostly Cloudy
6:50 AM 32.0 °F - 24.8 °F 75% 29.95 in 6.2 mi Variable 2.3 mph - N/A   Mostly Cloudy
7:50 AM 33.8 °F - 21.2 °F 60% 29.95 in 6.2 mi Calm Calm - N/A   Mostly Cloudy
8:00 AM 33 °F - 22 °F 51%  in 6 mi Calm Calm - -   Partly Cloudy
8:50 AM 37.4 °F - 19.4 °F 48% 29.95 in 6.2 mi Variable 2.3 mph - N/A   Mostly Cloudy
9:50 AM 39.2 °F - 21.2 °F 49% 29.98 in 6.2 mi Variable 1.2 mph - N/A   Mostly Cloudy
10:50 AM 42.8 °F - 21.2 °F 42% 29.98 in 6.2 mi Variable 2.3 mph - N/A   Mostly Cloudy
11:50 AM 44.6 °F 38.8 °F 28.4 °F 53% 29.98 in 6.2 mi SSE 11.5 mph - N/A   Mostly Cloudy
12:50 PM 42.8 °F 37.5 °F 32.0 °F 66% 29.98 in 6.2 mi SSE 9.2 mph - N/A   Mostly Cloudy
1:50 PM 41.0 °F 38.0 °F 33.8 °F 76% 29.98 in 6.2 mi SSE 4.6 mph - N/A   Mostly Cloudy
2:00 PM 41 °F - 33 °F 66%  in 6 mi SSE 4.6 mph - -   Partly Cloudy
2:50 PM 41.0 °F - 33.8 °F 76% 29.98 in 6.2 mi Calm Calm - N/A Rain Light Rain
3:50 PM 41.0 °F - 33.8 °F 76% 30.01 in 6.2 mi West 1.2 mph - N/A Rain Light Rain
4:50 PM 39.2 °F - 35.6 °F 87% 30.01 in 6.2 mi NW 2.3 mph - N/A   Mostly Cloudy
5:50 PM 37.4 °F - 35.6 °F 93% 30.04 in 6.2 mi Variable 1.2 mph - N/A Rain Light Rain
6:50 PM 37.4 °F - 35.6 °F 93% 30.04 in 6.2 mi Calm Calm - N/A Rain Light Rain
7:50 PM 35.6 °F - 35.6 °F 100% 30.04 in 6.2 mi ESE 2.3 mph - N/A Rain Light Rain
8:00 PM 36 °F - 35 °F 95%  in 12 mi ESE 2.3 mph - - Rain Light Rain
8:50 PM 35.6 °F - 35.6 °F 100% 30.06 in 6.2 mi Variable 1.2 mph - N/A Rain Light Rain
9:50 PM 35.6 °F - 33.8 °F 93% 30.06 in 6.2 mi SSE 1.2 mph - N/A Rain Light Rain
10:50 PM 33.8 °F - 33.8 °F 100% 30.06 in 6.2 mi Variable 1.2 mph - N/A Rain Light Rain
11:50 PM 32.0 °F - 32.0 °F 100% 30.06 in 2.5 mi Calm Calm - N/A Snow Light Snow